Location: Azul
(36.7830°S, 59.8500°W)
Time: 02:54:58
(UTC-03:00)

ISS - Pass Details

Date: 20 October 2017
Orbit: 400 x 408 km, 51.6° (Epoch: 24 October)

Event Time Altitude Azimuth Distance (km) Brightness Sun altitude
Exits shadow 03:44:47 - 191° (SSW) 1,581 -0.5 -26.6°
Reaches altitude 10° 03:45:13 10° 185° (S) 1,494 -0.6 -26.5°
Maximum altitude 03:46:42 12° 159° (SSE) 1,357 -0.5 -26.3°
Drops below altitude 10° 03:48:11 10° 132° (SE) 1,488 0.0 -26.0°
Sets 03:51:18 0° 100° (E) 2,342 1.0 -25.5°
